Location: Poughquag
(41.6090°N, 73.6820°W)
Time: 12:20:25
(UTC-04:00)

Tiros 1 despin weight - Pass Details

Date: 04 June 2020
Orbit: 593 x 642 km, 48.2° (Epoch: 07 July)

Event Time Altitude Azimuth Distance (km) Brightness Sun altitude
Rises 13:51:50 0° 296° (WNW) 2,907 ? 67.3°
Reaches altitude 10° 13:54:14 10° 301° (WNW) 1,991 ? 67.0°
Maximum altitude 13:58:42 52° 18° (NNE) 766 ? 66.5°
Drops below altitude 10° 14:03:05 10° 96° (E) 1,954 ? 66.0°
Sets 14:05:25 0° 101° (E) 2,849 ? 65.7°
